Location: Enid
(36.3960°N, 97.8780°W)
Time: 14:22:13
(UTC-06:00)

Hubble Space Telescope - Visible Passes

Search period start: 29 January 2015 00:00
Search period end: 08 February 2015 00:00
Orbit: 544 x 548 km, 28.5° (Epoch: 28 January)

Date Brightness Start Highest point End Pass type
(mag) Time Alt. Az. Time Alt. Az. Time Alt. Az.
29 Jan 2.8 18:48:49 10° SSW 18:51:39 18° SSE 18:54:32 10° ESE visible
29 Jan 3.4 20:28:58 10° SW 20:30:05 16° SW 20:30:05 16° SW visible
30 Jan 2.7 18:40:27 10° SW 18:43:35 20° SSE 18:46:43 10° ESE visible
30 Jan 3.1 20:20:53 10° WSW 20:22:37 20° SW 20:22:37 20° SW visible
31 Jan 2.6 18:32:11 10° SW 18:35:30 23° S 18:38:49 10° ESE visible
31 Jan 2.8 20:12:51 10° WSW 20:15:10 23° SSW 20:15:10 23° SSW visible
01 Feb 2.5 18:23:59 10° SW 18:27:25 25° S 18:30:53 10° ESE visible
01 Feb 2.6 20:04:50 10° WSW 20:07:43 25° SSW 20:07:43 25° SSW visible
02 Feb 2.5 19:56:51 10° WSW 20:00:15 24° S 20:00:18 24° S visible
03 Feb 2.6 19:48:55 10° WSW 19:52:10 22° S 19:52:55 21° S visible
04 Feb 2.9 19:41:02 10° WSW 19:44:04 19° SSW 19:45:36 16° SSE visible
05 Feb 3.2 19:33:15 10° WSW 19:35:57 16° SSW 19:38:21 11° SSE visible
06 Feb 3.4 19:25:38 10° SW 19:27:49 14° SSW 19:29:56 10° SSE visible
07 Feb 3.6 19:18:23 10° SW 19:19:40 11° SSW 19:20:51 10° S visible
